www.pogodaiklimat.ru

Погода и климат >> Архив погоды >> Россия >> Калмыкия >> Комсомольский


ПОГОДА в Комсомольском

  • Прогноз погоды в Комсомольском
  • Монитор погоды в Комсомольском

АРХИВ ПОГОДЫ в Комсомольском

Время (UTC), дата Ветер
(напр.,м/с)
 
Видим.   Явления Облачность Т
(С)
Тd
(С)
f
(%)
Тe
(С)
Тes
(С)
Комфортность P
(гПа)
Po
(гПа)
Тmin
(С)
Tmax
(С)
R
(мм)
R24
(мм)
S
(см)
09 15.09 Ю 3 20 км 4/4 600 м
[Cu hum]
+26.4 +10.7 37 +27 +33 жарко 1017.0 1017.3
12 15.09 З 3
{12}
20 км 3/3 1000 м
[Cu hum]
+28.9 +6.6 24 +28 +31 жарко 1015.8 1016.2
15 15.09 СЗ 1 20 км 3/0
[Ci fib]
+25.5 +5.8 28 +25 +25 комфорт 1016.0 1016.4 +29.4
18 15.09 В 1 20 км ясно +19.3 +6.6 44 +21 +21 комфорт 1017.4 1017.7
21 15.09 С 3 20 км ясно +17.0 +6.0 48 +17 +17 1018.1 1018.5
00 16.09 С 2 20 км ясно +14.0 +6.4 60 +14 +14 1019.0 1019.4
03 16.09 С 2 20 км ясно +11.8 +5.5 65 +11 +11 1019.5 1019.9 +11.8
06 16.09 СВ 4 20 км ясно +20.0 +5.0 37 +21 +25 комфорт 1018.7 1019.1
09 16.09 СВ 1 20 км ясно +25.4 +2.0 22 +24 +37 комфорт 1016.9 1017.3
12 16.09 В 1 20 км ясно +27.9 +3.3 21 +26 +33 жарко 1014.1 1014.5
15 16.09 штиль 0 20 км ясно +25.5 +4.8 26 +25 +25 комфорт 1012.7 1013.1 +28.1
18 16.09 ЮВ 2 20 км ясно +19.6 +10.7 56 +21 +21 комфорт 1013.1 1013.4
21 16.09 ЮВ 2 20 км ясно +18.2 +15.4 84 +19 +19 1012.1 1012.5
00 17.09 ЮЗ 2 4000 м дымка ясно +15.5 +14.4 93 +15 +15 1011.6 1012.0
03 17.09 З 2 500 м туман ?/? +16.3 +15.6 96 +16 +16 1012.0 1012.4 +14.6
06 17.09 З 2 20 км {туман} 8/6 600 м
[Sc Ac trans]
+23.3 +14.5 58 +27 +29 душно 1011.6 1012.0
09 17.09 З 3 20 км 10/10 600 м
[Sc]
+26.3 +7.6 30 +26 +26 жарко 1010.3 1010.7
12 17.09 СЗ 3 20 км 10/10 600 м
[Sc]
+26.5 +4.1 24 +25 +25 комфорт 1009.5 1009.9
15 17.09 З 3 10 км слаб. ливневой дождь 10/10 330 м
[Cb cap]
+18.9 +11.5 62 +20 +20 1011.0 1011.4 +27.9
18 17.09 З 1 4000 м дымка {ливн. осадки} 10/10 540 м
[Sc]
+17.3 +15.8 91 +18 +18 1010.2 1010.5
21 17.09 ЮЗ 2 н/о н/о +15.4 +14.0 91 +15 +15 1010.0 1010.3
00 18.09 З 3 20 км 4/0
[Ac trans]
+15.3 +13.0 86 +15 +15 1010.2 1010.6
03 18.09 З 2 20 км 6/4 600 м
[Sc Ac trans]
+14.9 +11.6 81 +15 +15 1011.9 1012.3 +14.7 2
06 18.09 З 4 20 км ясно +21.0 +12.9 60 +24 +28 комфорт 1013.3 1013.7
09 18.09 З 4 20 км 1/0
[Ac trans]
+26.2 +10.5 37 +27 +34 жарко 1012.7 1013.1
12 18.09 З 5 20 км 1/1 1000 м
[Cu hum]
+28.6 +8.7 29 +28 +31 жарко 1011.3 1011.7
15 18.09 Ю 2 20 км ясно +26.0 +9.2 35 +26 +26 жарко 1010.2 1010.6 +28.9
18 18.09 Ю 5 20 км ясно +22.0 +9.8 46 +24 +24 комфорт 1010.3 1010.6
21 18.09 ЮЗ 4 20 км ясно +19.5 +11.3 59 +21 +21 комфорт 1011.0 1011.4
00 19.09 С 2
{11}
20 км ясно +19.5 +11.3 59 +21 +21 комфорт 1011.0 1014.1
03 19.09 СЗ 2 20 км ясно +13.9 +9.0 72 +13 +13 1016.0 1016.4 +13.6
06 19.09 СЗ 5-11
{11}
20 км 1/0
[Ac trans]
+19.1 +3.5 36 +19 +22 1018.7 1019.0
09 19.09 СЗ 4
{11}
20 км 3/0
[Ac trans]
+20.9 -2.2 21 +21 +27 комфорт 1019.4 1019.7
12 19.09 СЗ 3 20 км 6/0
[Ac trans]
+20.6 -1.8 22 +21 +24 комфорт 1019.4 1019.8
15 19.09 З 1 20 км 3/0
[Ac trans]
+18.0 -2.2 25 +19 +19 1019.9 1020.3 +21.9
18 19.09 ЮЗ 1 20 км 3/0
[Ac trans]
+14.7 +0.1 37 +15 +15 1020.4 1020.8
21 19.09 штиль 0 20 км 8/0
[Ac trans]
+14.6 +1.5 41 +15 +15 1019.4 1019.8
00 20.09 СВ 1 20 км 8/8 600 м
[Sc Ac trans]
+13.0 +3.6 53 +13 +13 1019.4 1019.8
03 20.09 СВ 2 20 км 9/9 600 м
[Sc Ac trans]
+14.5 +2.4 44 +14 +14 1019.4 1019.8 +12.8
06 20.09 В 2 20 км 8/5 600 м
[Sc diur, vesp Ac As]
+18.1 +1.2 32 +19 +20 1018.9 1019.3
09 20.09 В 4 20 км 9/8 600 м
[Sc diur, vesp]
+21.3 -0.4 23 +21 +22 комфорт 1016.5 1016.9
12 20.09 В 4 20 км 10/8 600 м
[Sc diur, vesp]
+22.2 +2.7 28 +22 +22 комфорт 1014.0 1014.4
15 20.09 В 4 20 км 10/10 600 м
[Sc diur, vesp]
+20.1 -0.7 25 +20 +20 1012.8 1013.2 +23.1
18 20.09 В 3 20 км 10/10 600 м
[Sc diur, vesp]
+18.8 +4.7 39 +19 +19 1011.6 1012.0
21 20.09 СВ 4 20 км 10/10 630 м
[Sc diur, vesp]
+16.4 +3.9 43 +16 +16 1009.6 1010.0
00 21.09 СВ 3 10 км слаб. ливневой дождь 10/10 330 м
[Cb calv]
+14.7 +4.9 52 +14 +14 1008.7 1009.1
03 21.09 С 5-11
{12}
20 км {ливн. осадки} 10/10 480 м
[Sc diur, vesp]
+10.4 +7.5 82 +7 +7 1012.4 1012.8 +10.4 0.0
06 21.09 С 3
{11}
10 км слаб. ливневой дождь 10/10 360 м
[Cb cap]
+10.8 +9.0 89 +9 +9 1013.2 1013.6 +9.7
09 21.09 СЗ 3 10 км слаб. ливневой дождь 10/10 330 м
[Cb cap]
+10.8 +9.0 89 +9 +9 1013.2 1015.3
12 21.09 СЗ 3 20 км {ливн. осадки} 10/10 330 м
[Cb cap]
+12.3 +8.5 78 +11 +11 1015.5 1015.9
15 21.09 З 1 20 км 6/3 600 м
[Sc Ac und Ci fib]
+11.9 +6.6 70 +12 +12 1016.0 1016.4 +13.5 1
18 21.09 ЮЗ 2 20 км 4/0
[Ac und]
+8.4 +6.6 88 +6 +6 1016.7 1017.1
21 21.09 З 3 20 км 8/0
[Ac cast]
+7.9 +6.1 88 +5 +5 1017.7 1018.1
00 22.09 З 3 20 км ясно +7.0 +5.1 88 +4 +4 1018.0 1018.4
03 22.09 З 2 20 км ясно +5.6 +4.2 91 +3 +3 1019.7 1020.1 +5.5
06 22.09 З 5
{11}
20 км ясно +11.9 +5.7 66 +10 +12 1021.1 1021.5 +5.4

 

Местоположение метеостанции Комсомольский (Калмыкия, Россия): широта 45.35 долгота 46.03 высота над уровнем моря -2 м.

В архиве по умолчанию представлена погода в Комсомольском за последнюю неделю. Архивные данные за месяц целиком и за предыдущие месяцы, начиная с января 2011 года, Вы можете получить, выбрав интересующий диапазон дат из раскрывающегося списка и нажав кнопку "Ввод!".


*Определитесь, кто Вы:
робот инопланетянин человек

Внимание! Время в таблицах - всемирное. Для получения местного времени необходимо прибавить поправку, которая равна 3 ч.

Смотрите также архив погоды в соседних городах и на ближайших метеорологических станциях:

Погода в Артезиане (Калмыкия, Россия) (70 км)
Погода в Южно-Сухокумске (Дагестан, Россия) (83 км)
Погода в Лагани (Калмыкия, Россия) (103 км)
Погода в Лимане (Астраханская область, Россия) (105 км)
Погода в Яшкуле (Калмыкия, Россия) (106 км)
Погода в Кочубее (Дагестан, Россия) (113 км)
Погода в Утте (Калмыкия, Россия) (113 км)
Погода в Ики-Буруле (Калмыкия, Россия) (120 км)
Погода в Терекли-Мектебе (Дагестан, Россия) (136 км)
Погода в Арзгире (Ставропольский край, Россия) (143 км)

Пояснения к столбцам:

Ветер - указаны скорость ветра в м/с - средняя за 10 мин, порывы в срок и между сроками (в фигурных скобках) и направление, откуда дует ветер: С - северный, СВ - северо-восточный, В - восточный, ЮВ - юго-восточный, Ю - южный, ЮЗ - юго-западный, З - западный, СЗ - северо-западный.
Видимость - горизонтальная дальность видимости в метрах или километрах. При видимости от 1 до 10 км при отсутствии осадков обычно наблюдается дымка, при ухудшении видимости до 1 км и менее - туман. В сухую погоду видимость может ухудшаться дымом, пылью или мглою.
Явления - указаны атмосферные явления, наблюдавшиеся в срок или в последний час перед сроком; фигурными скобками обозначены явления, наблюдавшиеся между сроками (за 1-3 часа до срока); квадратными скобками обозначены град или гололедные отложения с указанием их диаметра в мм.
Облачность - указаны через наклонную черту общая и нижняя облачность в баллах и высота нижней границы облаков в метрах; квадратными скобками обозначены формы облаков: Ci - перистые, Cs - перисто-слоистые, Cc - перисто-кучевые, Ac - высококучевые, As - высокослоистые, Sc - слоисто-кучевые, Ns - слоисто-дождевые, Cu - кучевые, Cb - кучево-дождевые. Подробнее классификацию облаков см. в Атласе облаков (PDF).
T - Температура воздуха - температура, измеренная на высоте 2 м над землей.
Td - Температура точки росы - температура, при понижении до которой содержащийся в воздухе водяной пар достигнет насыщения.
f - Относительная влажность воздуха - влажноcть воздуха, измеренная на высоте 2 м над землей.
Te - Эффективная температура - температура, которую ощущает одетый по сезону человек в тени. Характеристика душности погоды. При расчете учитывается влияние влажности воздуха и скорости ветра на теплоощущения человека.
Tes - Эффективная температура на солнце - температура, которую ощущает человек, с поправкой на солнечный нагрев. Характеристика знойности погоды. Зависит от высоты солнца над горизонтом, облачности и скорости ветра. Ночью, в пасмурную погоду, а также при ветре 12 м/с и более поправка равна нулю.
P - Атмосферное давление - приведенное к уровню моря атмосферное давление.
Po - Атмосферное давление - измеренное на уровне метеостанции атмосферное давление.
Tmin - Минимальная температура - минимум температуры воздуха на высоте 2 м над землей.
Tmax - Максимальная температура - максимум температуры воздуха на высоте 2 м над землей.
R - Количество осадков - Количество выпавших осадков за период времени, мм. При наведении курсора мыши на число - период времени, за который выпало указанное количество осадков.
R24 - Количество осадков - Количество выпавших осадков за 24 часа, мм.
S - Снежный покров - Высота снежного покрова, см. При наведении курсора мыши на число - состояние снежного покрова и степень покрытия местности в баллах.